Time,TemperatureF,DewpointF,PressureIn,WindDirection,WindDirectionDegrees,WindSpeedMPH,WindSpeedGustMPH,Humidity,HourlyPrecipIn,Conditions,Clouds,dailyrainin,SoftwareType,DateUTC
2013-02-17 00:02:00,35.0,-99.9,-100.00,North,-999,-999.0,-999.0,-999,0.00,,,0.13,,2013-02-17 08:02:00,
2013-02-17 00:11:00,35.0,-99.9,-100.00,North,-999,-999.0,-999.0,-999,0.00,,,0.13,,2013-02-17 08:11:00,
2013-02-17 00:22:00,35.0,-99.9,-100.00,North,-999,-999.0,-999.0,-999,0.00,,,0.13,,2013-02-17 08:22:00,
2013-02-17 00:30:00,36.0,-99.9,-100.00,North,-999,-999.0,-999.0,-999,0.00,,,0.13,,2013-02-17 08:30:00,
2013-02-17 01:02:00,36.0,-99.9,-100.00,North,-999,-999.0,-999.0,-999,0.00,,,0.13,,2013-02-17 09:02:00,
2013-02-17 01:11:00,36.0,-99.9,-100.00,North,-999,-999.0,-999.0,-999,0.00,,,0.13,,2013-02-17 09:11:00,
2013-02-17 01:22:00,36.0,-99.9,-100.00,North,-999,-999.0,-999.0,-999,0.00,,,0.13,,2013-02-17 09:22:00,
2013-02-17 01:30:00,36.0,-99.9,-100.00,North,-999,-999.0,-999.0,-999,0.00,,,0.13,,2013-02-17 09:30:00,
2013-02-17 02:02:00,36.0,-99.9,-100.00,North,-999,-999.0,-999.0,-999,0.00,,,0.13,,2013-02-17 10:02:00,
2013-02-17 02:11:00,36.0,-99.9,-100.00,North,-999,-999.0,-999.0,-999,0.00,,,0.13,,2013-02-17 10:11:00,
2013-02-17 02:22:00,36.0,-99.9,-100.00,North,-999,-999.0,-999.0,-999,0.00,,,0.13,,2013-02-17 10:22:00,
2013-02-17 02:30:00,34.0,-99.9,-100.00,North,-999,-999.0,-999.0,-999,0.00,,,0.13,,2013-02-17 10:30:00,
2013-02-17 03:02:00,34.0,-99.9,-100.00,North,-999,-999.0,-999.0,-999,0.00,,,0.13,,2013-02-17 11:02:00,
2013-02-17 03:11:00,34.0,-99.9,-100.00,North,-999,-999.0,-999.0,-999,0.00,,,0.13,,2013-02-17 11:11:00,
2013-02-17 03:22:00,34.0,-99.9,-100.00,North,-999,-999.0,-999.0,-999,0.00,,,0.13,,2013-02-17 11:22:00,
2013-02-17 03:30:00,33.0,-99.9,-100.00,North,-999,-999.0,-999.0,-999,0.01,,,0.14,,2013-02-17 11:30:00,
2013-02-17 04:03:00,33.0,-99.9,-100.00,North,-999,-999.0,-999.0,-999,0.01,,,0.14,,2013-02-17 12:03:00,
2013-02-17 04:12:00,33.0,-99.9,-100.00,North,-999,-999.0,-999.0,-999,0.01,,,0.14,,2013-02-17 12:12:00,
2013-02-17 04:22:00,33.0,-99.9,-100.00,North,-999,-999.0,-999.0,-999,0.01,,,0.14,,2013-02-17 12:22:00,
2013-02-17 04:30:00,32.0,-99.9,-100.00,North,-999,-999.0,-999.0,-999,0.00,,,0.14,,2013-02-17 12:30:00,
2013-02-17 05:02:00,32.0,-99.9,-100.00,North,-999,-999.0,-999.0,-999,0.00,,,0.14,,2013-02-17 13:02:00,
2013-02-17 05:12:00,32.0,-99.9,-100.00,North,-999,-999.0,-999.0,-999,0.00,,,0.14,,2013-02-17 13:12:00,
2013-02-17 05:22:00,32.0,-99.9,-100.00,North,-999,-999.0,-999.0,-999,0.00,,,0.14,,2013-02-17 13:22:00,
2013-02-17 05:30:00,31.0,-99.9,-100.00,North,-999,-999.0,-999.0,-999,0.00,,,0.13,,2013-02-17 13:30:00,
2013-02-17 06:02:00,31.0,-99.9,-100.00,North,-999,-999.0,-999.0,-999,0.00,,,0.13,,2013-02-17 14:02:00,
2013-02-17 06:12:00,31.0,-99.9,-100.00,North,-999,-999.0,-999.0,-999,0.00,,,0.13,,2013-02-17 14:12:00,
2013-02-17 06:22:00,31.0,-99.9,-100.00,North,-999,-999.0,-999.0,-999,0.00,,,0.13,,2013-02-17 14:22:00,
2013-02-17 06:30:00,32.0,-99.9,-100.00,North,-999,-999.0,-999.0,-999,0.00,,,0.12,,2013-02-17 14:30:00,
2013-02-17 07:02:00,32.0,-99.9,-100.00,North,-999,-999.0,-999.0,-999,0.00,,,0.12,,2013-02-17 15:02:00,
2013-02-17 07:11:00,32.0,-99.9,-100.00,North,-999,-999.0,-999.0,-999,0.00,,,0.12,,2013-02-17 15:11:00,
2013-02-17 07:22:00,32.0,-99.9,-100.00,North,-999,-999.0,-999.0,-999,0.00,,,0.12,,2013-02-17 15:22:00,
2013-02-17 07:30:00,31.0,-99.9,-100.00,North,-999,-999.0,-999.0,-999,0.00,,,0.10,,2013-02-17 15:30:00,
2013-02-17 08:02:00,31.0,-99.9,-100.00,North,-999,-999.0,-999.0,-999,0.00,,,0.10,,2013-02-17 16:02:00,
2013-02-17 08:12:00,31.0,-99.9,-100.00,North,-999,-999.0,-999.0,-999,0.00,,,0.10,,2013-02-17 16:12:00,
2013-02-17 08:22:00,31.0,-99.9,-100.00,North,-999,-999.0,-999.0,-999,0.00,,,0.10,,2013-02-17 16:22:00,
2013-02-17 08:30:00,34.0,-99.9,-100.00,North,-999,-999.0,-999.0,-999,0.00,,,0.10,,2013-02-17 16:30:00,
2013-02-17 09:02:00,34.0,-99.9,-100.00,North,-999,-999.0,-999.0,-999,0.00,,,0.10,,2013-02-17 17:02:00,
2013-02-17 09:11:00,34.0,-99.9,-100.00,North,-999,-999.0,-999.0,-999,0.00,,,0.10,,2013-02-17 17:11:00,
2013-02-17 09:22:00,34.0,-99.9,-100.00,North,-999,-999.0,-999.0,-999,0.00,,,0.10,,2013-02-17 17:22:00,
2013-02-17 09:30:00,41.0,-99.9,-100.00,North,-999,-999.0,-999.0,-999,0.00,,,0.08,,2013-02-17 17:30:00,
2013-02-17 10:02:00,41.0,-99.9,-100.00,North,-999,-999.0,-999.0,-999,0.00,,,0.08,,2013-02-17 18:02:00,
2013-02-17 10:11:00,41.0,-99.9,-100.00,North,-999,-999.0,-999.0,-999,0.00,,,0.08,,2013-02-17 18:11:00,
2013-02-17 10:22:00,41.0,-99.9,-100.00,North,-999,-999.0,-999.0,-999,0.00,,,0.08,,2013-02-17 18:22:00,
2013-02-17 10:30:00,45.0,-99.9,-100.00,North,-999,-999.0,-999.0,-999,0.00,,,0.08,,2013-02-17 18:30:00,
2013-02-17 11:02:00,45.0,-99.9,-100.00,North,-999,-999.0,-999.0,-999,0.00,,,0.08,,2013-02-17 19:02:00,
2013-02-17 11:11:00,45.0,-99.9,-100.00,North,-999,-999.0,-999.0,-999,0.00,,,0.08,,2013-02-17 19:11:00,
2013-02-17 11:22:00,45.0,-99.9,-100.00,North,-999,-999.0,-999.0,-999,0.00,,,0.08,,2013-02-17 19:22:00,
2013-02-17 11:30:00,46.0,-99.9,-100.00,North,-999,-999.0,-999.0,-999,0.00,,,0.08,,2013-02-17 19:30:00,
2013-02-17 12:02:00,46.0,-99.9,-100.00,North,-999,-999.0,-999.0,-999,0.00,,,0.08,,2013-02-17 20:02:00,
2013-02-17 12:11:00,46.0,-99.9,-100.00,North,-999,-999.0,-999.0,-999,0.00,,,0.08,,2013-02-17 20:11:00,
2013-02-17 12:22:00,46.0,-99.9,-100.00,North,-999,-999.0,-999.0,-999,0.00,,,0.08,,2013-02-17 20:22:00,
2013-02-17 12:30:00,45.0,-99.9,-100.00,North,-999,-999.0,-999.0,-999,0.00,,,0.08,,2013-02-17 20:30:00,
2013-02-17 13:02:00,45.0,-99.9,-100.00,North,-999,-999.0,-999.0,-999,0.00,,,0.08,,2013-02-17 21:02:00,
2013-02-17 13:11:00,45.0,-99.9,-100.00,North,-999,-999.0,-999.0,-999,0.00,,,0.08,,2013-02-17 21:11:00,
2013-02-17 13:22:00,45.0,-99.9,-100.00,North,-999,-999.0,-999.0,-999,0.00,,,0.08,,2013-02-17 21:22:00,
2013-02-17 13:30:00,48.0,-99.9,-100.00,North,-999,-999.0,-999.0,-999,0.00,,,0.05,,2013-02-17 21:30:00,
2013-02-17 14:02:00,48.0,-99.9,-100.00,North,-999,-999.0,-999.0,-999,0.00,,,0.05,,2013-02-17 22:02:00,
2013-02-17 14:12:00,48.0,-99.9,-100.00,North,-999,-999.0,-999.0,-999,0.00,,,0.05,,2013-02-17 22:12:00,
2013-02-17 14:22:00,48.0,-99.9,-100.00,North,-999,-999.0,-999.0,-999,0.00,,,0.05,,2013-02-17 22:22:00,
2013-02-17 14:30:00,48.0,-99.9,-100.00,North,-999,-999.0,-999.0,-999,0.00,,,0.02,,2013-02-17 22:30:00,
2013-02-17 15:02:00,48.0,-99.9,-100.00,North,-999,-999.0,-999.0,-999,0.00,,,0.02,,2013-02-17 23:02:00,
2013-02-17 15:11:00,48.0,-99.9,-100.00,North,-999,-999.0,-999.0,-999,0.00,,,0.02,,2013-02-17 23:11:00,
2013-02-17 15:22:00,48.0,-99.9,-100.00,North,-999,-999.0,-999.0,-999,0.00,,,0.02,,2013-02-17 23:22:00,
2013-02-17 15:30:00,47.0,-99.9,-100.00,North,-999,-999.0,-999.0,-999,0.00,,,0.02,,2013-02-17 23:30:00,
2013-02-17 16:02:00,47.0,-99.9,-100.00,North,-999,-999.0,-999.0,-999,0.00,,,0.02,,2013-02-18 00:02:00,
2013-02-17 16:12:00,47.0,-99.9,-100.00,North,-999,-999.0,-999.0,-999,0.00,,,0.02,,2013-02-18 00:12:00,
2013-02-17 16:22:00,47.0,-99.9,-100.00,North,-999,-999.0,-999.0,-999,0.00,,,0.02,,2013-02-18 00:22:00,
2013-02-17 16:30:00,44.0,-99.9,-100.00,North,-999,-999.0,-999.0,-999,0.00,,,0.02,,2013-02-18 00:30:00,
2013-02-17 17:02:00,44.0,-99.9,-100.00,North,-999,-999.0,-999.0,-999,0.00,,,0.02,,2013-02-18 01:02:00,
2013-02-17 17:12:00,44.0,-99.9,-100.00,North,-999,-999.0,-999.0,-999,0.00,,,0.02,,2013-02-18 01:12:00,
2013-02-17 17:22:00,44.0,-99.9,-100.00,North,-999,-999.0,-999.0,-999,0.00,,,0.02,,2013-02-18 01:22:00,
2013-02-17 17:30:00,41.0,-99.9,-100.00,North,-999,-999.0,-999.0,-999,0.00,,,0.01,,2013-02-18 01:30:00,
2013-02-17 18:02:00,41.0,-99.9,-100.00,North,-999,-999.0,-999.0,-999,0.00,,,0.01,,2013-02-18 02:02:00,
2013-02-17 18:11:00,41.0,-99.9,-100.00,North,-999,-999.0,-999.0,-999,0.00,,,0.01,,2013-02-18 02:11:00,
2013-02-17 18:22:00,41.0,-99.9,-100.00,North,-999,-999.0,-999.0,-999,0.00,,,0.01,,2013-02-18 02:22:00,
2013-02-17 18:30:00,38.0,-99.9,-100.00,North,-999,-999.0,-999.0,-999,0.00,,,0.01,,2013-02-18 02:30:00,
2013-02-17 19:02:00,38.0,-99.9,-100.00,North,-999,-999.0,-999.0,-999,0.00,,,0.01,,2013-02-18 03:02:00,
2013-02-17 19:12:00,38.0,-99.9,-100.00,North,-999,-999.0,-999.0,-999,0.00,,,0.01,,2013-02-18 03:12:00,
2013-02-17 19:22:00,38.0,-99.9,-100.00,North,-999,-999.0,-999.0,-999,0.00,,,0.01,,2013-02-18 03:22:00,
2013-02-17 19:30:00,37.0,-99.9,-100.00,North,-999,-999.0,-999.0,-999,0.00,,,0.01,,2013-02-18 03:30:00,
2013-02-17 20:02:00,37.0,-99.9,-100.00,North,-999,-999.0,-999.0,-999,0.00,,,0.01,,2013-02-18 04:02:00,
2013-02-17 20:11:00,37.0,-99.9,-100.00,North,-999,-999.0,-999.0,-999,0.00,,,0.01,,2013-02-18 04:11:00,
2013-02-17 20:22:00,37.0,-99.9,-100.00,North,-999,-999.0,-999.0,-999,0.00,,,0.01,,2013-02-18 04:22:00,
2013-02-17 20:30:00,34.0,-99.9,-100.00,North,-999,-999.0,-999.0,-999,0.00,,,0.01,,2013-02-18 04:30:00,
2013-02-17 21:02:00,34.0,-99.9,-100.00,North,-999,-999.0,-999.0,-999,0.00,,,0.01,,2013-02-18 05:02:00,
2013-02-17 21:11:00,34.0,-99.9,-100.00,North,-999,-999.0,-999.0,-999,0.00,,,0.01,,2013-02-18 05:11:00,
2013-02-17 21:22:00,34.0,-99.9,-100.00,North,-999,-999.0,-999.0,-999,0.00,,,0.01,,2013-02-18 05:22:00,
2013-02-17 21:30:00,32.0,-99.9,-100.00,North,-999,-999.0,-999.0,-999,0.00,,,0.01,,2013-02-18 05:30:00,
2013-02-17 22:02:00,32.0,-99.9,-100.00,North,-999,-999.0,-999.0,-999,0.00,,,0.01,,2013-02-18 06:02:00,
2013-02-17 22:11:00,32.0,-99.9,-100.00,North,-999,-999.0,-999.0,-999,0.00,,,0.01,,2013-02-18 06:11:00,
2013-02-17 22:22:00,32.0,-99.9,-100.00,North,-999,-999.0,-999.0,-999,0.00,,,0.01,,2013-02-18 06:22:00,
2013-02-17 22:30:00,32.0,-99.9,-100.00,North,-999,-999.0,-999.0,-999,0.00,,,0.01,,2013-02-18 06:30:00,
2013-02-17 23:02:00,32.0,-99.9,-100.00,North,-999,-999.0,-999.0,-999,0.00,,,0.01,,2013-02-18 07:02:00,
2013-02-17 23:12:00,32.0,-99.9,-100.00,North,-999,-999.0,-999.0,-999,0.00,,,0.01,,2013-02-18 07:12:00,
2013-02-17 23:22:00,32.0,-99.9,-100.00,North,-999,-999.0,-999.0,-999,0.00,,,0.01,,2013-02-18 07:22:00,
2013-02-17 23:30:00,32.0,-99.9,-100.00,North,-999,-999.0,-999.0,-999,0.00,,,0.01,,2013-02-18 07:30:00,